This is the latest recevied weather packets stored in our database for station/object DH4SBM. If no packets are shown the sender has not sent any weather packets the latest 10 day(s).
| Time | Temp. | Humidity | Pressure | Rain* | Wind** | Luminosity | Snow |
|---|---|---|---|---|---|---|---|
| 1777457147 | 16.67° C | 42% | 1023.3 hPa | 0 mm | - | 786 W/m² | - |
| 1777456547 | 16.67° C | 43% | 1023.4 hPa | 0 mm | - | 780 W/m² | - |
| 1777455947 | 16.67° C | 43% | 1023.3 hPa | 0 mm | - | 768 W/m² | - |
| 1777455347 | 16.67° C | 43% | 1023.3 hPa | 0 mm | - | 761 W/m² | - |
| 1777454747 | 16.11° C | 43% | 1023.3 hPa | 0 mm | - | 749 W/m² | - |
| 1777454147 | 15.56° C | 44% | 1023.3 hPa | 0 mm | - | 731 W/m² | - |
| 1777453547 | 15.56° C | 45% | 1023.2 hPa | 0 mm | - | 712 W/m² | - |
| 1777452947 | 15.56° C | 45% | 1023.3 hPa | 0 mm | - | 698 W/m² | - |
| 1777452347 | 15° C | 46% | 1023.4 hPa | 0 mm | - | 680 W/m² | - |
| 1777451747 | 15° C | 47% | 1023.4 hPa | 0 mm | - | 656 W/m² | - |
| 1777451146 | 14.44° C | 46% | 1023.3 hPa | 0 mm | - | 638 W/m² | - |
| 1777450547 | 14.44° C | 47% | 1023.3 hPa | 0 mm | - | 615 W/m² | - |
| 1777449947 | 14.44° C | 49% | 1023.4 hPa | 0 mm | - | 487 W/m² | - |
| 1777449347 | 13.89° C | 49% | 1023.4 hPa | 0 mm | - | 570 W/m² | - |
| 1777448747 | 13.33° C | 50% | 1023.3 hPa | 0 mm | - | 548 W/m² | - |
| 1777448147 | 13.33° C | 50% | 1023.3 hPa | 0 mm | - | 483 W/m² | - |
| 1777447547 | 12.78° C | 52% | 1023.3 hPa | 0 mm | - | 497 W/m² | - |
| 1777446947 | 12.22° C | 53% | 1023.3 hPa | 0 mm | - | 473 W/m² | - |
| 1777446346 | 11.67° C | 54% | 1023.2 hPa | 0 mm | - | 448 W/m² | - |
| 1777445747 | 11.11° C | 54% | 1023.3 hPa | 0 mm | - | 420 W/m² | - |
| 1777445147 | 10.56° C | 55% | 1023.4 hPa | 0 mm | - | 380 W/m² | - |
| 1777444710 | 10.56° C | 55% | 1023.5 hPa | 0 mm | - | 267 W/m² | - |
| 1777444110 | 10.56° C | 56% | 1023.3 hPa | 0 mm | - | 332 W/m² | - |
| 1777443510 | 10° C | 56% | 1023.2 hPa | 0 mm | - | 44 W/m² | - |
| 1777442910 | 10° C | 56% | 1023.1 hPa | 0 mm | - | 279 W/m² | - |
* Rain latest hour (hover to see other rain measurements)
** Current wind speed in m/s (hover to see current wind gust speed)